Location: Cheb
(50.0670°N, 12.3670°E)
Time: 14:25:01
(UTC+02:00)

ISS - Visible Passes

Search period start: 22 October 2019 00:00
Search period end: 31 October 2019 23:00
Orbit: 411 x 421 km, 51.6° (Epoch: 22 October)

Date Brightness Start Highest point End Pass type
(mag) Time Alt. Az. Time Alt. Az. Time Alt. Az.
24 Oct -0.8 06:50:23 10° S 06:52:21 15° SE 06:54:20 10° ESE visible
26 Oct -1.9 06:48:34 10° SSW 06:51:33 30° SSE 06:54:33 10° E visible
27 Oct -1.4 05:00:47 11° S 05:03:05 21° SE 05:05:40 10° E visible
28 Oct -1.0 04:14:38 14° SE 04:14:40 14° SE 04:16:28 10° ESE visible
28 Oct -3.2 05:47:34 10° SW 05:50:51 58° SSE 05:54:10 10° ENE visible
29 Oct -2.7 05:01:15 31° SSW 05:02:17 40° SSE 05:05:29 10° E visible
30 Oct -1.5 04:14:50 23° ESE 04:14:50 23° ESE 04:16:41 10° E visible
30 Oct -3.8 05:47:44 17° WSW 05:50:15 87° NNW 05:53:37 10° ENE visible
31 Oct -3.8 05:01:14 65° SSW 05:01:36 74° SSE 05:04:57 10° ENE visible
